User: anonymous   Login
Location: Gro� Glienicke
(52.4675°N, 13.1079°E)
Time: 08:44:28
(UTC+00:00)
Language:

Cosmos 1745 Rocket - Orbit

View from above orbital plane
View from above orbital plane
View from above satellite
View from above satellite

Ground track
Ground track

The orbit data is extracted from the following two-line orbital elements,

1 16728U 86037B   20272.44557222 +.00000057 +00000-0 +42334-4 0  9994
2 16728 082.9579 168.2377 0032255 088.3768 084.5546 13.76734449725326
Epoch (UTC): 28 September 2020 10:41:37
Eccentricity: 0.0032255
inclination: 82.9579°
perigee height: 952 km
apogee height: 999 km
right ascension of ascending node: 168.2377°
argument of perigee: 88.3768°
revolutions per day: 13.76734449
mean anomaly at epoch: 84.5546°
orbit number at epoch: 72532

The dashed part of the orbit path shows where the satellite is in the earth's shadow,  

DLR